Latest Weather Observations for Cape Bruny AWS

IDT60901

Issued at 3:05 pm EST Wednesday 3 September 2014 (issued every 10 minutes, with the page automatically refreshed every 10 minutes)

About weather observations | Map of Hobart area stations | Latest observations for Hobart area | Other Formats
Station Details ID: 094198 Name: CAPE BRUNY (CAPE BRUNY) Lat: -43.49 Lon: 147.14 Height: 59.7 m
Data from the previous 72 hours. | See also: Recent months at Cape Bruny AWS
Date/Time
EST
Tmp

°C
App
Tmp
°C
Dew
Point
°C
Rel
Hum
%
Delta-T

°C
Wind Press
QNH
hPa
Press
MSL
hPa
Rain
since
9 am
mm
Dir
 
Spd
km/h
Gust
km/h
Spd
kts
Gust
kts
03/03:00pm 12.9 8.5 7.6 70 2.6 SW 20 28 11 15 1018.2 1018.3 1.2
03/02:30pm 12.4 8.5 7.3 71 2.5 SW 17 32 9 17 1018.3 1018.4 1.2
03/02:00pm 11.3 6.1 7.4 77 1.9 SW 24 32 13 17 1018.4 1018.5 1.2
03/01:30pm 12.3 8.0 6.8 69 2.6 SW 19 28 10 15 1018.5 1018.6 1.2
03/01:00pm 12.7 9.0 8.0 73 2.3 SW 17 24 9 13 1018.7 1018.8 1.2
03/12:30pm 12.9 9.0 8.6 75 2.2 WSW 19 24 10 13 1019.2 1019.2 1.2
03/12:00pm 10.9 5.6 8.3 84 1.3 WSW 26 32 14 17 1019.5 1019.5 1.2
03/11:30am 10.4 5.8 8.2 86 1.1 WSW 22 32 12 17 1019.8 1019.8 1.2
03/11:00am 9.2 4.3 7.0 86 1.0 WSW 22 37 12 20 1020.0 1020.0 0.8
03/10:30am 12.1 6.4 6.8 70 2.5 WSW 26 33 14 18 1020.1 1020.1 0.0
03/10:00am 11.3 5.3 7.2 76 2.0 W 28 35 15 19 1020.2 1020.2 0.0
03/09:30am 11.2 5.9 6.7 74 2.1 W 24 32 13 17 1020.3 1020.3 0.0
03/09:00am 10.5 6.8 6.5 76 1.9 W 15 20 8 11 1020.5 1020.5 0.6
03/08:30am 10.3 6.7 6.6 78 1.7 W 15 20 8 11 1020.3 1020.3 0.6
03/08:00am 9.7 5.6 6.4 80 1.5 W 17 20 9 11 1020.2 1020.2 0.6
03/07:30am 9.1 5.3 5.7 79 1.6 WNW 15 19 8 10 1020.0 1020.0 0.6
03/07:00am 8.5 4.6 5.3 80 1.4 WNW 15 20 8 11 1019.9 1019.9 0.6
03/06:30am 8.6 4.7 5.4 80 1.4 WNW 15 20 8 11 1019.7 1019.7 0.6
03/06:00am 8.2 3.8 5.0 80 1.4 WNW 17 24 9 13 1019.6 1019.6 0.6
03/05:30am 8.3 3.9 4.9 79 1.5 WNW 17 22 9 12 1019.5 1019.5 0.6
03/05:00am 7.9 3.5 4.8 81 1.4 WNW 17 22 9 12 1019.6 1019.6 0.6
03/04:30am 7.7 3.3 4.7 81 1.3 WNW 17 20 9 11 1019.6 1019.6 0.6
03/04:00am 7.3 3.5 3.9 79 1.5 NW 13 19 7 10 1019.6 1019.6 0.6
03/03:30am 7.3 3.8 3.7 78 1.5 WNW 11 17 6 9 1019.5 1019.5 0.6
03/03:00am 7.7 3.5 3.9 77 1.6 WNW 15 20 8 11 1019.7 1019.7 0.6
03/02:30am 7.8 3.2 3.5 74 1.8 WNW 17 26 9 14 1019.9 1019.9 0.6
03/02:00am 7.5 3.6 3.2 74 1.8 WNW 13 17 7 9 1020.1 1020.1 0.6
03/01:30am 8.4 3.5 4.2 75 1.8 W 19 22 10 12 1020.4 1020.4 0.6
03/01:00am 7.8 3.2 3.7 75 1.8 WNW 17 22 9 12 1020.4 1020.4 0.6
03/12:30am 7.9 3.3 3.6 74 1.8 WNW 17 20 9 11 1020.3 1020.3 0.6
03/12:00am 7.5 2.5 3.6 76 1.7 WNW 19 22 10 12 1020.4 1020.4 0.6
 
Date/Time
EST
Tmp

°C
App
Tmp
°C
Dew
Point
°C
Rel
Hum
%
Delta-T

°C
Wind Press
QNH
hPa
Press
MSL
hPa
Rain
since
9 am
mm
Dir
 
Spd
km/h
Gust
km/h
Spd
kts
Gust
kts
02/11:30pm 8.0 2.4 3.7 74 1.9 W 22 32 12 17 1020.4 1020.4 0.6
02/11:00pm 8.3 2.4 3.8 73 1.9 W 24 32 13 17 1020.5 1020.5 0.6
02/10:30pm 8.4 1.7 3.5 71 2.1 W 28 35 15 19 1020.5 1020.5 0.6
02/10:00pm 8.7 1.6 3.5 70 2.2 W 30 39 16 21 1020.5 1020.5 0.6
02/09:30pm 8.9 2.5 3.3 68 2.4 W 26 35 14 19 1020.5 1020.5 0.6
02/09:00pm 8.6 1.5 3.6 71 2.2 W 30 33 16 18 1020.6 1020.6 0.6
02/08:30pm 8.4 0.8 3.8 73 2.0 W 33 43 18 23 1020.6 1020.6 0.6
02/08:00pm 8.4 1.6 3.1 69 2.3 W 28 35 15 19 1020.4 1020.4 0.6
02/07:30pm 8.3 2.4 3.8 73 1.9 W 24 35 13 19 1020.2 1020.2 0.6
02/07:00pm 8.9 2.1 2.9 66 2.6 W 28 33 15 18 1019.9 1019.9 0.6
02/06:30pm 8.8 2.4 3.0 67 2.5 W 26 41 14 22 1019.8 1019.8 0.6
02/06:00pm 8.9 1.3 2.9 66 2.6 W 32 41 17 22 1019.4 1019.4 0.6
02/05:30pm 8.7 1.3 3.9 72 2.1 WSW 32 43 17 23 1019.0 1019.1 0.6
02/05:00pm 9.1 1.8 2.7 64 2.7 WSW 30 41 16 22 1018.7 1018.8 0.6
02/04:30pm 9.2 1.9 2.5 63 2.8 SW 30 48 16 26 1018.6 1018.7 0.6
02/04:00pm 9.1 1.8 2.4 63 2.8 WSW 30 43 16 23 1018.3 1018.4 0.6
02/03:30pm 9.3 2.7 4.1 70 2.3 WSW 28 39 15 21 1018.1 1018.2 0.6
02/03:00pm 10.0 3.3 5.6 74 2.0 WSW 30 41 16 22 1017.9 1018.0 0.6
02/02:30pm 10.0 3.7 7.4 84 1.2 W 30 39 16 21 1017.8 1017.9 0.4
02/02:00pm 8.6 3.4 7.1 90 0.7 WSW 24 33 13 18 1017.8 1017.9 0.4
02/01:47pm 6.8 -3.3 3.6 80 1.4 SW 46 57 25 31 1017.9 1018.0 0.2
02/01:44pm 8.1 1.3 4.9 80 1.4 W 30 48 16 26 1017.9 1018.0 0.2
02/01:30pm 8.1 1.4 5.7 85 1.1 WSW 30 44 16 24 1017.7 1017.8 0.2
02/01:19pm 8.6 1.8 3.2 69 2.3 WSW 28 52 15 28 1017.6 1017.7 0.0
02/01:00pm 10.7 4.6 4.6 66 2.7 WSW 26 33 14 18 1017.5 1017.6 0.0
02/12:30pm 9.4 3.0 5.2 75 1.9 WSW 28 35 15 19 1017.7 1017.8 0.0
02/12:00pm 9.0 1.1 4.6 74 2.0 SW 35 48 19 26 1018.0 1018.1 0.0
02/11:30am 8.7 0.5 4.5 75 1.9 WSW 37 50 20 27 1017.8 1017.9 0.0
02/11:03am 10.2 1.8 3.9 65 2.8 WSW 37 57 20 31 1017.6 1017.7 0.0
02/11:00am 10.8 2.3 3.1 59 3.4 WSW 37 48 20 26 1017.5 1017.6 0.0
02/10:30am 9.8 2.2 2.9 62 3.0 W 32 41 17 22 1017.3 1017.4 0.0
02/10:00am 9.9 2.3 3.0 62 3.0 W 32 41 17 22 1017.2 1017.3 0.0
02/09:30am 10.2 3.3 2.6 59 3.3 W 28 35 15 19 1017.1 1017.2 0.0
02/09:00am 9.7 2.8 2.8 62 3.0 W 28 37 15 20 1017.0 1017.1 12.0
02/08:30am 9.1 3.0 4.7 74 2.0 W 26 35 14 19 1016.8 1016.9 12.0
02/08:00am 8.0 2.8 3.7 74 1.9 WNW 20 24 11 13 1016.7 1016.8 12.0
02/07:30am 7.4 1.8 3.3 75 1.7 WNW 22 26 12 14 1016.4 1016.5 12.0
02/07:00am 8.2 2.6 3.7 73 1.9 W 22 30 12 16 1016.0 1016.1 12.0
02/06:30am 8.4 3.3 0.6 58 3.1 SW 17 24 9 13 1015.7 1015.8 12.0
02/06:00am 8.2 1.8 0.7 59 3.0 SW 24 39 13 21 1015.4 1015.5 12.0
02/05:30am 7.9 2.2 0.6 60 2.9 WSW 20 28 11 15 1014.9 1015.0 12.0
02/05:00am 8.3 1.9 1.0 60 3.0 SW 24 33 13 18 1014.5 1014.6 12.0
02/04:30am 8.6 3.0 1.5 61 2.9 SW 20 28 11 15 1014.2 1014.3 12.0
02/04:00am 8.3 1.5 0.8 59 3.0 SW 26 32 14 17 1014.1 1014.2 12.0
02/03:30am 8.6 3.0 1.1 59 3.1 SW 20 33 11 18 1013.8 1013.9 12.0
02/03:00am 8.7 3.2 2.1 63 2.8 SW 20 35 11 19 1013.6 1013.7 12.0
02/02:30am 8.9 3.5 1.3 59 3.1 SSW 19 30 10 16 1013.3 1013.4 12.0
02/02:00am 8.9 2.7 2.0 62 2.9 SW 24 43 13 23 1013.1 1013.2 12.0
02/01:30am 9.3 3.6 3.1 65 2.7 SW 22 35 12 19 1013.0 1013.1 12.0
02/01:00am 9.1 3.5 3.3 67 2.5 S 22 33 12 18 1012.8 1012.9 12.0
02/12:30am 9.1 4.1 3.7 69 2.4 SW 19 32 10 17 1012.4 1012.5 12.0
02/12:00am 9.0 3.0 3.2 67 2.5 S 24 39 13 21 1012.3 1012.4 12.0
 
Date/Time
EST
Tmp

°C
App
Tmp
°C
Dew
Point
°C
Rel
Hum
%
Delta-T

°C
Wind Press
QNH
hPa
Press
MSL
hPa
Rain
since
9 am
mm
Dir
 
Spd
km/h
Gust
km/h
Spd
kts
Gust
kts
01/11:42pm 9.2 2.3 4.4 72 2.1 S 30 43 16 23 1011.9 1012.0 12.0
01/11:30pm 8.9 4.2 3.3 68 2.4 SSW 17 24 9 13 1011.8 1011.9 12.0
01/11:17pm 9.1 2.6 4.7 74 2.0 S 28 46 15 25 1011.6 1011.7 12.0
01/11:00pm 9.4 3.6 4.2 70 2.3 S 24 37 13 20 1011.4 1011.5 12.0
01/10:30pm 9.0 2.7 3.6 69 2.3 S 26 39 14 21 1011.3 1011.4 12.0
01/10:00pm 8.5 2.9 5.3 80 1.4 S 24 35 13 19 1010.9 1011.0 12.0
01/09:35pm 7.0 3.2 4.1 82 1.3 SSW 13 19 7 10 1010.7 1010.8 11.8
01/09:30pm 6.9 -1.5 3.5 79 1.4 S 37 65 20 35 1011.0 1011.1 11.6
01/09:24pm 8.7 2.3 5.1 78 1.6 S 28 54 15 29 1010.5 1010.6 10.8
01/09:00pm 9.0 4.8 5.7 80 1.5 SW 17 22 9 12 1010.0 1010.1 10.8
01/08:30pm 8.5 5.2 4.7 77 1.7 S 11 17 6 9 1009.5 1009.5 10.8
01/08:00pm 8.1 1.3 4.9 80 1.4 S 30 44 16 24 1009.4 1009.4 10.8
01/07:40pm 9.5 3.2 5.7 77 1.7 S 28 50 15 27 1008.7 1008.7 10.0
01/07:30pm 9.5 3.4 4.9 73 2.1 S 26 37 14 20 1008.5 1008.5 10.0
01/07:00pm 9.5 3.4 4.9 73 2.1 S 26 37 14 20 1008.0 1008.0 10.0
01/06:31pm 9.6 3.2 5.0 73 2.1 S 28 46 15 25 1007.7 1007.7 10.0
01/06:30pm 9.5 2.6 4.7 72 2.1 S 30 46 16 25 1007.7 1007.7 10.0
01/06:00pm 9.4 2.1 4.6 72 2.1 S 32 52 17 28 1007.2 1007.2 9.8
01/05:38pm 9.4 2.7 5.8 78 1.7 S 30 50 16 27 1006.6 1006.6 9.8
01/05:30pm 9.0 2.0 5.9 81 1.4 S 32 48 17 26 1006.5 1006.5 9.8
01/05:03pm 9.1 2.4 5.8 80 1.5 S 30 48 16 26 1005.8 1005.8 9.8
01/05:00pm 9.0 2.3 5.6 79 1.6 S 30 44 16 24 1005.8 1005.8 9.8
01/04:32pm 9.3 2.6 5.5 77 1.7 S 30 48 16 26 1005.3 1005.3 9.8
01/04:30pm 9.1 2.4 5.7 79 1.6 S 30 43 16 23 1005.3 1005.3 9.8
01/04:13pm 9.2 2.6 6.1 81 1.4 S 30 48 16 26 1005.0 1005.0 9.6
01/04:00pm 9.1 2.2 6.5 84 1.2 S 32 44 17 24 1004.6 1004.6 9.6
01/03:39pm 9.3 2.4 6.6 83 1.3 S 32 50 17 27 1004.4 1004.4 9.4
01/03:30pm 9.2 2.3 6.5 83 1.3 S 32 46 17 25 1004.1 1004.1 9.4
01/03:00pm 9.0 3.0 7.0 87 0.9 SW 28 48 15 26 1004.0 1004.0 9.2
01/02:30pm 9.3 3.3 6.9 85 1.1 SW 28 46 15 25 1003.6 1003.6 8.8
01/02:07pm 9.4 3.0 7.0 85 1.1 SW 30 48 16 26 1003.3 1003.3 8.4
01/02:00pm 9.2 1.8 6.8 85 1.1 SW 35 48 19 26 1003.2 1003.2 8.2
01/01:31pm 9.2 3.3 7.3 88 0.9 SW 28 46 15 25 1003.2 1003.2 7.6
01/01:30pm 9.1 2.8 7.2 88 0.9 SW 30 46 16 25 1003.2 1003.2 7.6
01/01:21pm 9.2 3.3 7.5 89 0.8 SW 28 46 15 25 1003.0 1003.0 7.2
01/01:00pm 9.5 4.1 7.8 89 0.8 SSW 26 44 14 24 1002.8 1002.8 6.6
01/12:43pm 9.3 3.4 7.6 89 0.8 SSW 28 52 15 28 1002.6 1002.6 6.6
01/12:30pm 9.7 4.8 8.3 91 0.7 SW 24 41 13 22 1002.6 1002.6 6.4
01/12:00pm 10.0 2.7 8.9 93 0.5 SW 37 48 20 26 1002.5 1002.5 6.0
01/11:46am 10.0 2.3 8.8 92 0.6 SW 39 50 21 27 1002.3 1002.3 5.4
01/11:30am 10.4 6.7 9.3 93 0.5 SW 19 32 10 17 1002.2 1002.2 4.2
01/11:00am 10.5 8.7 9.3 92 0.6 SW 9 19 5 10 1002.1 1002.1 1.8
01/10:30am 10.9 8.0 9.8 93 0.6 WSW 15 20 8 11 1002.2 1002.2 1.0
01/10:00am 10.9 6.7 9.7 92 0.6 SW 22 28 12 15 1002.3 1002.3 0.6
01/09:30am 11.0 8.4 9.4 90 0.8 SSW 13 19 7 10 1002.5 1002.5 0.4
01/09:00am 11.7 9.6 9.6 87 1.1 SSW 11 19 6 10 1002.8 1002.8 0.2
01/08:30am 12.8 12.1 8.5 75 2.1 SE 2 11 1 6 1002.7 1002.7 0.0
01/08:00am 12.7 11.0 7.6 71 2.5 SSW 6 7 3 4 1002.7 1002.7 0.0
01/07:30am 12.7 10.8 7.4 70 2.6 NW 7 9 4 5 1003.0 1003.0 0.0
01/07:00am 12.6 10.3 7.3 70 2.6 N 9 15 5 8 1003.1 1003.1 0.0
01/06:30am 12.4 10.6 7.1 70 2.6 N 6 9 3 5 1002.9 1002.9 0.0
01/06:00am 12.8 10.8 7.3 69 2.7 NW 7 11 4 6 1003.1 1003.1 0.0
01/05:30am 13.1 9.7 7.5 69 2.7 N 15 19 8 10 1003.2 1003.2 0.0
01/05:00am 13.4 9.9 7.4 67 3.0 N 15 20 8 11 1003.1 1003.1 0.0
01/04:30am 13.7 9.8 7.2 65 3.2 N 17 24 9 13 1003.0 1003.0 0.0
01/04:00am 13.3 9.8 7.3 67 2.9 NNE 15 24 8 13 1002.9 1002.9 0.0
01/03:30am 13.4 10.7 7.2 66 3.0 NNE 11 19 6 10 1003.0 1003.0 0.0
01/03:00am 13.4 10.3 7.2 66 3.0 NNE 13 20 7 11 1003.5 1003.5 0.0
01/02:30am 13.6 10.4 6.9 64 3.3 NNE 13 20 7 11 1004.0 1004.0 0.0
01/02:00am 14.1 10.8 6.5 60 3.7 NNE 13 20 7 11 1004.6 1004.6 0.0
01/01:30am 14.2 10.9 6.6 60 3.7 NNE 13 20 7 11 1005.0 1005.0 0.0
01/01:00am 14.5 11.6 6.3 58 4.0 N 11 19 6 10 1005.4 1005.4 0.0
01/12:30am 14.7 11.0 6.3 57 4.1 N 15 24 8 13 1005.7 1005.7 0.0
01/12:00am 14.2 10.7 7.0 62 3.5 N 15 20 8 11 1006.1 1006.2 0.0
 
Date/Time
EST
Tmp

°C
App
Tmp
°C
Dew
Point
°C
Rel
Hum
%
Delta-T

°C
Wind Press
QNH
hPa
Press
MSL
hPa
Rain
since
9 am
mm
Dir
 
Spd
km/h
Gust
km/h
Spd
kts
Gust
kts
31/11:30pm 14.4 10.9 7.0 61 3.6 N 15 24 8 13 1006.3 1006.4 0.0
31/11:00pm 14.4 10.5 7.0 61 3.6 N 17 24 9 13 1006.9 1007.0 0.0
31/10:30pm 14.2 10.4 7.5 64 3.3 N 17 26 9 14 1007.3 1007.4 0.0
31/10:00pm 14.3 10.9 7.6 64 3.3 N 15 20 8 11 1007.5 1007.6 0.0
31/09:30pm 14.7 10.8 7.3 61 3.7 N 17 24 9 13 1007.8 1007.9 0.0
31/09:00pm 14.8 10.5 7.8 63 3.5 N 20 26 11 14 1007.8 1007.9 0.0
31/08:30pm 14.7 10.7 8.2 65 3.3 N 19 26 10 14 1007.9 1008.0 0.0
31/08:00pm 14.8 10.9 8.5 66 3.2 N 19 30 10 16 1008.1 1008.2 0.0
31/07:30pm 14.8 12.0 8.7 67 3.1 NNE 13 22 7 12 1008.5 1008.6 0.0
31/07:00pm 14.9 11.8 8.8 67 3.1 NNE 15 24 8 13 1008.7 1008.8 0.0
31/06:30pm 15.1 12.5 9.2 68 3.0 NNE 13 20 7 11 1008.8 1008.9 0.0
31/06:00pm 15.2 11.7 8.9 66 3.2 NNE 17 20 9 11 1008.8 1008.9 0.0
31/05:30pm 15.6 11.9 8.1 61 3.8 NNE 17 22 9 12 1008.9 1009.0 0.0
31/05:00pm 15.4 11.9 7.2 58 4.1 NE 15 22 8 12 1009.0 1009.1 0.0
31/04:30pm 15.5 12.5 7.8 60 3.9 NE 13 17 7 9 1009.2 1009.3 0.0
31/04:00pm 15.9 13.3 7.9 59 4.0 NNE 11 15 6 8 1009.6 1009.7 0.0
31/03:30pm 16.5 13.3 6.9 53 4.8 N 13 19 7 10 1009.9 1010.0 0.0

Latest Capital City Observations: Canberra | Sydney | Melbourne | Brisbane | Adelaide | Perth | Hobart | Darwin

Other Formats:

Comma delimited format used in spreadsheet applications
http://www.bom.gov.au/fwo/IDT60901/IDT60901.95967.axf

JavaScript Object Notation format (JSON) in row-major order
http://www.bom.gov.au/fwo/IDT60901/IDT60901.95967.json